This is the latest recevied weather packets stored in our database for station/object IA5ITY-13. If no packets are shown the sender has not sent any weather packets the latest 10 day(s).
| Time | Temp. | Humidity | Pressure | Rain* | Wind** | Luminosity | Snow |
|---|---|---|---|---|---|---|---|
| 1778077511 | 20° C | 98% | 1009.5 hPa | 0 mm | - | - | - |
| 1778077214 | 20° C | 98% | 1009.5 hPa | 0 mm | - | - | - |
| 1778076913 | 20° C | 97% | 1009.6 hPa | 0 mm | - | - | - |
| 1778076614 | 21.11° C | 90% | 1009.5 hPa | 0 mm | - | - | - |
| 1778076309 | 22.22° C | 88% | 1009.6 hPa | 0 mm | - | - | - |
| 1778076034 | 21.11° C | 92% | 1009.6 hPa | 0 mm | - | - | - |
| 1778075709 | 22.22° C | 89% | 1009.7 hPa | 0 mm | - | - | - |
| 1778075414 | 21.11° C | 90% | 1009.7 hPa | 0 mm | - | - | - |
| 1778075113 | 21.11° C | 90% | 1009.7 hPa | 0 mm | - | - | - |
| 1778074815 | 22.22° C | 85% | 1009.6 hPa | 0 mm | - | - | - |
| 1778074510 | 22.78° C | 82% | 1009.7 hPa | 0 mm | - | - | - |
| 1778074224 | 22.78° C | 87% | 1009.8 hPa | 0 mm | - | - | - |
| 1778073910 | 22.78° C | 92% | 1009.8 hPa | 0 mm | - | - | - |
| 1778073614 | 21.11° C | 93% | 1009.7 hPa | 0 mm | - | - | - |
| 1778073313 | 22.22° C | 88% | 1009.8 hPa | 0 mm | - | - | - |
| 1778073013 | 22.22° C | 89% | 1009.8 hPa | 0 mm | - | - | - |
| 1778072710 | 22.22° C | 90% | 1009.9 hPa | 0 mm | - | - | - |
| 1778072435 | 22.22° C | 94% | 1010 hPa | 0 mm | - | - | - |
| 1778072109 | 22.22° C | 99% | 1010.1 hPa | 0 mm | - | - | - |
| 1778071813 | 21.11° C | 95% | 1010.1 hPa | 0 mm | - | - | - |
| 1778071514 | 22.22° C | 98% | 1009.9 hPa | 0 mm | - | - | - |
| 1778071214 | 21.11° C | 98% | 1010 hPa | 0 mm | - | - | - |
| 1778070910 | 21.11° C | 97% | 1010.1 hPa | 0 mm | - | - | - |
| 1778070625 | 21.11° C | 99% | 1010 hPa | 0 mm | - | - | - |
| 1778070309 | 21.11° C | 99% | 1010 hPa | 0 mm | - | - | - |
* Rain latest hour (hover to see other rain measurements)
** Current wind speed in m/s (hover to see current wind gust speed)